Time,TemperatureF,DewpointF,PressureIn,WindDirection,WindDirectionDegrees,WindSpeedMPH,WindSpeedGustMPH,Humidity,HourlyPrecipIn,Conditions,Clouds,dailyrainin,SoftwareType,DateUTC
2013-01-27 00:01:00,31.0,24.0,29.77,South,190,0.0,2.0,75,0.00,,,0.00,,2013-01-27 07:01:00,
2013-01-27 00:13:00,31.0,24.0,29.77,South,190,0.0,2.0,75,0.00,,,0.00,,2013-01-27 07:13:00,
2013-01-27 00:21:00,30.0,23.0,29.76,South,190,1.0,3.0,76,0.00,,,0.00,,2013-01-27 07:21:00,
2013-01-27 00:31:00,31.0,24.0,29.75,South,190,0.0,4.0,75,0.00,,,0.00,,2013-01-27 07:31:00,
2013-01-27 00:41:00,31.0,24.0,29.75,South,190,0.0,4.0,75,0.00,,,0.00,,2013-01-27 07:41:00,
2013-01-27 00:52:00,31.0,24.0,29.75,SSE,162,2.0,4.0,76,0.00,,,0.00,,2013-01-27 07:52:00,
2013-01-27 01:01:00,32.0,24.0,29.75,SSE,162,0.0,2.0,73,0.00,,,0.00,,2013-01-27 08:01:00,
2013-01-27 01:11:00,32.0,24.0,29.75,SSE,162,0.0,2.0,73,0.00,,,0.00,,2013-01-27 08:11:00,
2013-01-27 01:21:00,31.0,24.0,29.75,SSE,162,0.0,1.0,76,0.00,,,0.00,,2013-01-27 08:21:00,
2013-01-27 01:31:00,31.0,24.0,29.75,SSE,162,2.0,3.0,75,0.00,,,0.00,,2013-01-27 08:31:00,
2013-01-27 01:41:00,31.0,24.0,29.75,SSE,162,2.0,3.0,75,0.00,,,0.00,,2013-01-27 08:41:00,
2013-01-27 01:52:00,31.0,24.0,29.74,SSE,162,0.0,3.0,74,0.00,,,0.00,,2013-01-27 08:52:00,
2013-01-27 02:02:00,31.0,24.0,29.74,SSE,162,0.0,3.0,76,0.00,,,0.00,,2013-01-27 09:02:00,
2013-01-27 02:11:00,31.0,24.0,29.74,SSE,162,0.0,3.0,76,0.00,,,0.00,,2013-01-27 09:11:00,
2013-01-27 02:21:00,31.0,24.0,29.74,SSE,162,0.0,3.0,74,0.00,,,0.00,,2013-01-27 09:21:00,
2013-01-27 02:31:00,30.0,24.0,29.74,SSE,162,0.0,1.0,77,0.00,,,0.00,,2013-01-27 09:31:00,
2013-01-27 02:41:00,30.0,24.0,29.74,SSE,162,0.0,1.0,77,0.00,,,0.00,,2013-01-27 09:41:00,
2013-01-27 02:52:00,30.0,23.0,29.74,SSE,162,1.0,3.0,75,0.00,,,0.00,,2013-01-27 09:52:00,
2013-01-27 03:01:00,29.0,23.0,29.74,SE,145,1.0,5.0,78,0.00,,,0.00,,2013-01-27 10:01:00,
2013-01-27 03:11:00,30.0,23.0,29.74,SE,145,0.0,2.0,76,0.00,,,0.00,,2013-01-27 10:11:00,
2013-01-27 03:21:00,30.0,23.0,29.74,SE,145,0.0,2.0,76,0.00,,,0.00,,2013-01-27 10:21:00,
2013-01-27 03:31:00,29.0,23.0,29.73,SE,145,0.0,2.0,78,0.00,,,0.00,,2013-01-27 10:31:00,
2013-01-27 03:41:00,29.0,23.0,29.73,SE,145,0.0,2.0,78,0.00,,,0.00,,2013-01-27 10:41:00,
2013-01-27 03:52:00,30.0,23.0,29.73,SE,145,0.0,2.0,76,0.00,,,0.00,,2013-01-27 10:52:00,
2013-01-27 04:01:00,29.0,22.0,29.74,SE,145,0.0,2.0,75,0.00,,,0.00,,2013-01-27 11:01:00,
2013-01-27 04:11:00,29.0,22.0,29.74,SE,145,0.0,2.0,75,0.00,,,0.00,,2013-01-27 11:11:00,
2013-01-27 04:21:00,28.0,22.0,29.74,SE,145,1.0,2.0,77,0.00,,,0.00,,2013-01-27 11:21:00,
2013-01-27 04:32:00,28.0,22.0,29.75,South,172,0.0,5.0,77,0.00,,,0.00,,2013-01-27 11:32:00,
2013-01-27 04:42:00,28.0,22.0,29.75,South,172,0.0,5.0,77,0.00,,,0.00,,2013-01-27 11:42:00,
2013-01-27 04:52:00,27.0,21.0,29.75,SW,220,1.0,5.0,78,0.00,,,0.00,,2013-01-27 11:52:00,
2013-01-27 05:02:00,26.0,20.0,29.75,SW,220,0.0,1.0,79,0.00,,,0.00,,2013-01-27 12:02:00,
2013-01-27 05:11:00,26.0,20.0,29.75,SW,220,0.0,1.0,79,0.00,,,0.00,,2013-01-27 12:11:00,
2013-01-27 05:21:00,27.0,21.0,29.75,SSE,149,2.0,5.0,79,0.00,,,0.00,,2013-01-27 12:21:00,
2013-01-27 05:32:00,29.0,22.0,29.75,SSE,149,1.0,2.0,76,0.00,,,0.00,,2013-01-27 12:32:00,
2013-01-27 05:41:00,29.0,22.0,29.75,SSE,149,1.0,2.0,76,0.00,,,0.00,,2013-01-27 12:41:00,
2013-01-27 05:52:00,28.0,20.0,29.75,SSE,150,3.0,4.0,73,0.00,,,0.00,,2013-01-27 12:52:00,
2013-01-27 06:01:00,29.0,22.0,29.75,SSW,196,4.0,5.0,75,0.00,,,0.00,,2013-01-27 13:01:00,
2013-01-27 06:11:00,29.0,22.0,29.75,SSW,196,4.0,5.0,75,0.00,,,0.00,,2013-01-27 13:11:00,
2013-01-27 06:22:00,30.0,22.0,29.75,SSW,197,1.0,4.0,71,0.00,,,0.00,,2013-01-27 13:22:00,
2013-01-27 06:31:00,29.0,22.0,29.76,SW,217,2.0,5.0,76,0.00,,,0.00,,2013-01-27 13:31:00,
2013-01-27 06:41:00,29.0,22.0,29.76,SW,217,2.0,5.0,76,0.00,,,0.00,,2013-01-27 13:41:00,
2013-01-27 06:52:00,29.0,21.0,29.76,SW,217,0.0,3.0,72,0.00,,,0.00,,2013-01-27 13:52:00,
2013-01-27 07:01:00,29.0,21.0,29.76,SW,217,0.0,3.0,72,0.00,,,0.00,,2013-01-27 14:01:00,
2013-01-27 07:11:00,29.0,21.0,29.76,SW,217,0.0,3.0,72,0.00,,,0.00,,2013-01-27 14:11:00,
2013-01-27 07:21:00,30.0,22.0,29.77,SSW,207,2.0,4.0,73,0.00,,,0.00,,2013-01-27 14:21:00,
2013-01-27 07:31:00,29.0,22.0,29.78,SSE,167,0.0,3.0,76,0.00,,,0.00,,2013-01-27 14:31:00,
2013-01-27 07:43:00,29.0,22.0,29.78,SSE,167,0.0,3.0,76,0.00,,,0.00,,2013-01-27 14:43:00,
2013-01-27 07:52:00,30.0,23.0,29.77,SSW,210,1.0,4.0,75,0.00,,,0.00,,2013-01-27 14:52:00,
2013-01-27 08:01:00,33.0,24.0,29.77,South,180,2.0,8.0,69,0.00,,,0.00,,2013-01-27 15:01:00,
2013-01-27 08:11:00,33.0,24.0,29.77,South,180,2.0,8.0,69,0.00,,,0.00,,2013-01-27 15:11:00,
2013-01-27 08:21:00,33.0,24.0,29.77,South,180,2.0,8.0,69,0.00,,,0.00,,2013-01-27 15:21:00,
2013-01-27 08:32:00,34.0,23.0,29.75,SSE,164,2.0,5.0,65,0.00,,,0.00,,2013-01-27 15:32:00,
2013-01-27 08:42:00,34.0,23.0,29.75,SSE,164,2.0,5.0,65,0.00,,,0.00,,2013-01-27 15:42:00,
2013-01-27 08:52:00,33.0,23.0,29.74,SSW,205,0.0,3.0,67,0.00,,,0.00,,2013-01-27 15:52:00,
2013-01-27 09:02:00,34.0,24.0,29.74,NW,319,0.0,3.0,66,0.00,,,0.00,,2013-01-27 16:02:00,
2013-01-27 09:21:00,34.0,24.0,29.74,SE,142,0.0,3.0,67,0.00,,,0.00,,2013-01-27 16:21:00,
2013-01-27 09:31:00,36.0,25.0,29.73,SE,142,1.0,4.0,65,0.00,,,0.00,,2013-01-27 16:31:00,
2013-01-27 09:41:00,36.0,25.0,29.73,SE,142,1.0,4.0,65,0.00,,,0.00,,2013-01-27 16:41:00,
2013-01-27 09:52:00,35.0,25.0,29.73,NNE,18,0.0,1.0,67,0.00,,,0.00,,2013-01-27 16:52:00,
2013-01-27 10:01:00,37.0,26.0,29.73,NNE,18,0.0,0.0,64,0.00,,,0.00,,2013-01-27 17:01:00,
2013-01-27 10:11:00,37.0,26.0,29.73,NNE,18,0.0,0.0,64,0.00,,,0.00,,2013-01-27 17:11:00,
2013-01-27 10:21:00,39.0,27.0,29.72,NNW,334,4.0,6.0,61,0.00,,,0.00,,2013-01-27 17:21:00,
2013-01-27 10:31:00,39.0,27.0,29.72,NE,37,1.0,3.0,61,0.00,,,0.00,,2013-01-27 17:31:00,
2013-01-27 10:41:00,39.0,27.0,29.72,NE,37,1.0,3.0,61,0.00,,,0.00,,2013-01-27 17:41:00,
2013-01-27 10:52:00,40.0,26.0,29.72,NE,37,0.0,3.0,58,0.00,,,0.00,,2013-01-27 17:52:00,
2013-01-27 11:01:00,40.0,26.0,29.72,NE,37,0.0,3.0,58,0.00,,,0.00,,2013-01-27 18:01:00,
2013-01-27 11:11:00,40.0,26.0,29.72,NE,37,0.0,3.0,58,0.00,,,0.00,,2013-01-27 18:11:00,
2013-01-27 11:22:00,41.0,27.0,29.70,NNW,335,1.0,4.0,57,0.00,,,0.00,,2013-01-27 18:22:00,
2013-01-27 11:31:00,41.0,27.0,29.70,NNW,335,1.0,4.0,57,0.00,,,0.00,,2013-01-27 18:31:00,
2013-01-27 11:42:00,41.0,27.0,29.70,NNW,335,1.0,4.0,57,0.00,,,0.00,,2013-01-27 18:42:00,
2013-01-27 11:52:00,38.0,26.0,29.69,NNE,15,3.0,7.0,62,0.00,,,0.00,,2013-01-27 18:52:00,
2013-01-27 12:01:00,38.0,26.0,29.69,NNE,15,3.0,7.0,62,0.00,,,0.00,,2013-01-27 19:01:00,
2013-01-27 12:11:00,38.0,26.0,29.69,NNE,15,3.0,7.0,62,0.00,,,0.00,,2013-01-27 19:11:00,
2013-01-27 12:21:00,38.0,27.0,29.68,NE,40,0.0,8.0,63,0.00,,,0.00,,2013-01-27 19:21:00,
2013-01-27 12:32:00,37.0,27.0,29.68,NE,51,1.0,9.0,67,0.00,,,0.00,,2013-01-27 19:32:00,
2013-01-27 12:41:00,37.0,27.0,29.68,NE,51,1.0,9.0,67,0.00,,,0.00,,2013-01-27 19:41:00,
2013-01-27 12:51:00,37.0,27.0,29.67,NNE,18,2.0,7.0,67,0.00,,,0.00,,2013-01-27 19:51:00,
2013-01-27 13:02:00,38.0,27.0,29.67,NE,54,1.0,5.0,64,0.00,,,0.00,,2013-01-27 20:02:00,
2013-01-27 13:11:00,38.0,27.0,29.67,NE,54,1.0,5.0,64,0.00,,,0.00,,2013-01-27 20:11:00,
2013-01-27 13:21:00,40.0,27.0,29.65,NE,42,3.0,9.0,60,0.00,,,0.00,,2013-01-27 20:21:00,
2013-01-27 13:32:00,43.0,25.0,29.64,SW,222,5.0,13.0,49,0.00,,,0.00,,2013-01-27 20:32:00,
2013-01-27 13:41:00,43.0,25.0,29.64,SW,222,5.0,13.0,49,0.00,,,0.00,,2013-01-27 20:41:00,
2013-01-27 13:52:00,46.0,24.0,29.62,NE,43,6.0,16.0,42,0.00,,,0.00,,2013-01-27 20:52:00,
2013-01-27 14:01:00,44.0,27.0,29.62,NNE,28,5.0,10.0,50,0.00,,,0.00,,2013-01-27 21:01:00,
2013-01-27 14:11:00,44.0,27.0,29.62,NNE,28,5.0,10.0,50,0.00,,,0.00,,2013-01-27 21:11:00,
2013-01-27 14:21:00,44.0,27.0,29.61,East,79,4.0,10.0,51,0.00,,,0.00,,2013-01-27 21:21:00,
2013-01-27 14:32:00,44.0,27.0,29.60,NNW,340,5.0,9.0,50,0.00,,,0.00,,2013-01-27 21:32:00,
2013-01-27 14:42:00,44.0,27.0,29.60,NNW,340,5.0,9.0,50,0.00,,,0.00,,2013-01-27 21:42:00,
2013-01-27 14:52:00,45.0,24.0,29.58,ESE,109,2.0,6.0,44,0.00,,,0.00,,2013-01-27 21:52:00,
2013-01-27 15:01:00,45.0,27.0,29.57,NNE,13,6.0,10.0,48,0.00,,,0.00,,2013-01-27 22:01:00,
2013-01-27 15:11:00,45.0,27.0,29.57,NNE,13,6.0,10.0,48,0.00,,,0.00,,2013-01-27 22:11:00,
2013-01-27 15:21:00,45.0,25.0,29.56,ENE,71,0.0,9.0,46,0.00,,,0.00,,2013-01-27 22:21:00,
2013-01-27 15:31:00,45.0,24.0,29.57,SW,214,8.0,17.0,43,0.00,,,0.00,,2013-01-27 22:31:00,
2013-01-27 15:42:00,45.0,24.0,29.57,SW,214,8.0,17.0,43,0.00,,,0.00,,2013-01-27 22:42:00,
2013-01-27 15:51:00,46.0,25.0,29.57,SSW,209,5.0,11.0,43,0.00,,,0.00,,2013-01-27 22:51:00,
2013-01-27 16:01:00,45.0,23.0,29.56,SSW,211,8.0,15.0,42,0.00,,,0.00,,2013-01-27 23:01:00,
2013-01-27 16:11:00,45.0,23.0,29.56,SSW,211,8.0,15.0,42,0.00,,,0.00,,2013-01-27 23:11:00,
2013-01-27 16:21:00,44.0,24.0,29.56,South,190,3.0,9.0,45,0.00,,,0.00,,2013-01-27 23:21:00,
2013-01-27 16:32:00,43.0,26.0,29.56,South,178,5.0,14.0,50,0.00,,,0.00,,2013-01-27 23:32:00,
2013-01-27 16:41:00,43.0,26.0,29.56,South,178,5.0,14.0,50,0.00,,,0.00,,2013-01-27 23:41:00,
2013-01-27 16:52:00,43.0,28.0,29.57,SSW,210,3.0,11.0,55,0.00,,,0.00,,2013-01-27 23:52:00,
2013-01-27 17:01:00,42.0,29.0,29.56,West,275,2.0,11.0,59,0.00,,,0.00,,2013-01-28 00:01:00,
2013-01-27 17:11:00,42.0,29.0,29.56,West,275,2.0,11.0,59,0.00,,,0.00,,2013-01-28 00:11:00,
2013-01-27 17:21:00,43.0,25.0,29.56,SW,229,6.0,14.0,49,0.00,,,0.00,,2013-01-28 00:21:00,
2013-01-27 17:32:00,43.0,25.0,29.55,SSW,203,3.0,9.0,49,0.00,,,0.00,,2013-01-28 00:32:00,
2013-01-27 17:41:00,43.0,25.0,29.55,SSW,203,3.0,9.0,49,0.00,,,0.00,,2013-01-28 00:41:00,
2013-01-27 17:51:00,44.0,23.0,29.56,West,263,10.0,17.0,44,0.00,,,0.00,,2013-01-28 00:51:00,
2013-01-27 18:01:00,43.0,23.0,29.57,SW,225,6.0,24.0,45,0.00,,,0.00,,2013-01-28 01:01:00,
2013-01-27 18:11:00,43.0,23.0,29.57,SW,225,6.0,24.0,45,0.00,,,0.00,,2013-01-28 01:11:00,
2013-01-27 18:21:00,43.0,24.0,29.56,West,281,7.0,19.0,46,0.00,,,0.00,,2013-01-28 01:21:00,
2013-01-27 18:32:00,42.0,22.0,29.57,SW,231,7.0,16.0,45,0.00,,,0.00,,2013-01-28 01:32:00,
2013-01-27 18:42:00,42.0,22.0,29.57,SW,231,7.0,16.0,45,0.00,,,0.00,,2013-01-28 01:42:00,
2013-01-27 18:51:00,43.0,24.0,29.57,West,262,10.0,22.0,46,0.00,,,0.00,,2013-01-28 01:51:00,
2013-01-27 19:01:00,43.0,23.0,29.57,SW,232,9.0,19.0,45,0.00,,,0.00,,2013-01-28 02:01:00,
2013-01-27 19:11:00,43.0,23.0,29.57,SW,232,9.0,19.0,45,0.00,,,0.00,,2013-01-28 02:11:00,
2013-01-27 19:21:00,43.0,22.0,29.58,SSW,204,9.0,23.0,43,0.00,,,0.00,,2013-01-28 02:21:00,
2013-01-27 19:32:00,43.0,22.0,29.59,West,265,9.0,25.0,43,0.00,,,0.00,,2013-01-28 02:32:00,
2013-01-27 19:41:00,43.0,22.0,29.59,West,265,9.0,25.0,43,0.00,,,0.00,,2013-01-28 02:41:00,
2013-01-27 19:52:00,43.0,22.0,29.58,WSW,240,5.0,19.0,43,0.00,,,0.00,,2013-01-28 02:52:00,
2013-01-27 20:02:00,41.0,20.0,29.58,SSW,211,4.0,11.0,43,0.00,,,0.00,,2013-01-28 03:02:00,
2013-01-27 20:11:00,41.0,20.0,29.58,SSW,211,4.0,11.0,43,0.00,,,0.00,,2013-01-28 03:11:00,
2013-01-27 20:21:00,42.0,21.0,29.59,SSW,208,8.0,18.0,43,0.00,,,0.00,,2013-01-28 03:21:00,
2013-01-27 20:32:00,41.0,22.0,29.60,WSW,249,9.0,14.0,46,0.00,,,0.00,,2013-01-28 03:32:00,
2013-01-27 20:41:00,41.0,22.0,29.60,WSW,249,9.0,14.0,46,0.00,,,0.00,,2013-01-28 03:41:00,
2013-01-27 20:52:00,40.0,23.0,29.62,West,279,0.0,9.0,50,0.00,,,0.00,,2013-01-28 03:52:00,
2013-01-27 21:01:00,33.0,25.0,29.62,ENE,57,6.0,13.0,72,0.00,,,0.00,,2013-01-28 04:01:00,
2013-01-27 21:11:00,33.0,25.0,29.62,ENE,57,6.0,13.0,72,0.00,,,0.00,,2013-01-28 04:11:00,
2013-01-27 21:21:00,31.0,25.0,29.66,NNE,19,2.0,13.0,77,0.00,,,0.00,,2013-01-28 04:21:00,
2013-01-27 21:31:00,29.0,24.0,29.68,North,9,0.0,4.0,81,0.00,,,0.00,,2013-01-28 04:31:00,
2013-01-27 21:41:00,29.0,24.0,29.68,North,9,0.0,4.0,81,0.00,,,0.00,,2013-01-28 04:41:00,
2013-01-27 21:52:00,29.0,25.0,29.69,NNW,333,3.0,8.0,83,0.00,,,0.00,,2013-01-28 04:52:00,
2013-01-27 22:03:00,28.0,23.0,29.70,North,360,2.0,6.0,82,0.00,,,0.00,,2013-01-28 05:03:00,
2013-01-27 22:11:00,28.0,23.0,29.70,North,360,2.0,6.0,82,0.00,,,0.00,,2013-01-28 05:11:00,
2013-01-27 22:21:00,28.0,23.0,29.70,NNW,333,0.0,4.0,81,0.00,,,0.00,,2013-01-28 05:21:00,
2013-01-27 22:31:00,28.0,23.0,29.70,NNW,333,0.0,1.0,80,0.00,,,0.00,,2013-01-28 05:31:00,
2013-01-27 22:41:00,28.0,23.0,29.70,NNW,333,0.0,1.0,80,0.00,,,0.00,,2013-01-28 05:41:00,
2013-01-27 22:52:00,28.0,23.0,29.69,SE,141,4.0,7.0,81,0.00,,,0.00,,2013-01-28 05:52:00,
2013-01-27 23:02:00,29.0,23.0,29.69,SE,145,0.0,7.0,79,0.00,,,0.00,,2013-01-28 06:02:00,
2013-01-27 23:11:00,29.0,23.0,29.69,SE,145,0.0,7.0,79,0.00,,,0.00,,2013-01-28 06:11:00,
2013-01-27 23:21:00,29.0,22.0,29.70,SE,145,0.0,3.0,76,0.00,,,0.00,,2013-01-28 06:21:00,
2013-01-27 23:32:00,29.0,22.0,29.70,SE,145,0.0,3.0,75,0.00,,,0.00,,2013-01-28 06:32:00,
2013-01-27 23:42:00,29.0,22.0,29.70,SE,145,0.0,3.0,75,0.00,,,0.00,,2013-01-28 06:42:00,
2013-01-27 23:52:00,29.0,23.0,29.70,NNW,344,1.0,2.0,77,0.00,,,0.00,,2013-01-28 06:52:00,